Powrót do katalogu

QO-100

ES'HAIL 2

AktywnyKrótkofalarstwoGEO
NORAD 43700·PAYLOAD·🇶🇦 Qatar

Wystrzelony Nov 15, 2018 z Cape Canaveral Space Force Station

Loading…

TLE

ŚwieżeSource: AMSAT

Epoka: Sep 14, 2026, 05:22 UTC

1 43700U 18090A   26257.22385742  .00000136  00000-0  00000-0 0  9997
2 43700   0.0145 117.7179 0002579  87.2981 254.5921  1.00274976 28573

Śledź QO-100 w czasie rzeczywistym z AllMySat

Download on the App Store